User: anonymous   Login
Location: Waning Moon II Observatory
(30.3730°N, 89.7620°W)
Time: 00:28:13
(UTC-05:00)
Language:

Cosmos 1825 Rocket - Orbit

View from above orbital plane
View from above orbital plane
View from above satellite
View from above satellite

Ground track
Ground track

The orbit data is extracted from the following two-line orbital elements,

1 17567U 87024B   16152.52144354  .00000120  00000-0  11613-4 0  9999
2 17567  82.5292 196.2194 0019764 160.8659 199.3303 14.83588903579873
Epoch (UTC): 31 May 2016 12:30:52
Eccentricity: 0.0019764
inclination: 82.5292°
perigee height: 604 km
apogee height: 632 km
right ascension of ascending node: 196.2194°
argument of perigee: 160.8659°
revolutions per day: 14.83588903
mean anomaly at epoch: 199.3303°
orbit number at epoch: 57987

The dashed part of the orbit path shows where the satellite is in the earth's shadow,  

DLR